Location: Franzen
(48.6167°N, 15.3833°E)
Time: 10:30:15
(UTC+00:00)

Resurs 01 Rocket - Pass Details

Date: 22 April 2021
Orbit: 634 x 644 km, 97.9° (Epoch: 16 May)

Event Time Altitude Azimuth Distance (km) Brightness Sun altitude
Exits shadow 20:46:10 - 224° (SW) 2,191 4.3 -22.4°
Reaches altitude 10° 20:46:44 10° 230° (SW) 2,041 4.1 -22.4°
Maximum altitude 20:49:36 17° 270° (W) 1,644 4.1 -22.7°
Drops below altitude 10° 20:52:28 10° 311° (NW) 2,051 5.2 -23.0°
Sets 20:55:26 0° 332° (NNW) 2,967 6.5 -23.2°
